Location: ??
(35.5052°N, 139.7262°E)
Time: 20:12:41
(UTC+00:00)

N. Korean satellite - Pass Details

Date: 27 September 2021
Orbit: 450 x 494 km, 97.3° (Epoch: 28 October)

Event Time Altitude Azimuth Distance (km) Brightness Sun altitude
Rises 19:50:50 0° 12° (NNE) 2,541 10.4 -9.5°
Reaches altitude 10° 19:52:53 10° 13° (NNE) 1,666 9.5 -9.1°
Maximum altitude 19:56:28 81° 101° (E) 497 6.7 -8.3°
Drops below altitude 10° 20:00:05 10° 189° (S) 1,675 9.2 -7.6°
Sets 20:02:09 0° 191° (S) 2,557 10.1 -7.2°
